Location: ???????????
(54.5822°N, 39.1075°E)
Time: 10:29:26
(UTC+00:00)

Iridium 51 - Pass Details

Date: 19 May 2025
Orbit: 390 x 504 km, 86.4° (Epoch: 13 June)

Event Time Altitude Azimuth Distance (km) Brightness Sun altitude
Rises 21:16:14 0° 359° (N) 2,532 9.6 -15.4°
Reaches altitude 10° 21:18:21 10° 7° (N) 1,670 8.1 -15.4°
Maximum altitude 21:21:52 44° 80° (E) 701 4.9 -15.4°
Enters shadow 21:23:46 23° 140° (SE) 1,091 5.4 -15.4°
